SCP
0 0 0 0 0 0 0 0 0 0 0 1 1 2 3 4 4 5 7 10 11 9 7 6 6 6 5 4 4 4 4 4 4 3 3 3 3 3 2 2 2 1 2 2
0 0 0 0 0 0 0 0 0 0 0 1 1 2 2 3 4 5 8 11 12 10 8 7 7 7 5 4 4 4 4 4 4 4 3 3 3 3 2 2 2 2 2 2
0 0 0 0 0 0 0 0 0 0 1 1 1 1 2 3 4 6 8 11 12 11 10 8 7 6 5 4 4 4 4 4 4 4 4 3 3 3 2 2 2 2 2 2
0 0 0 0 0 0 0 0 0 1 1 1 1 1 2 3 5 6 8 9 10 11 11 9 7 6 5 4 4 4 4 5 5 5 4 4 3 3 3 2 2 2 2 2
0 0 0 0 0 0 0 0 0 1 1 1 0 0 1 3 6 7 8 8 9 11 10 8 6 6 5 5 4 4 4 5 4 4 4 3 3 3 3 2 2 2 2 2
0 0 0 0 0 0 0 0 0 0 0 0 0 0 1 2 6 8 8 8 9 9 8 7 6 6 5 5 4 4 4 4 3 3 3 2 2 2 2 2 2 2 2 2
0 0 0 0 0 0 0 0 0 0 0 0 0 0 0 1 4 8 9 9 9 9 8 7 7 6 5 5 5 4 4 3 3 2 2 2 2 2 2 2 2 2 2 2
0 0 0 0 0 0 0 0 0 0 0 0 0 0 0 1 3 6 8 9 10 10 8 7 6 6 6 5 5 5 4 3 3 2 2 2 2 2 2 2 2 2 2 2
0 0 0 0 0 0 0 0 0 0 0 0 0 0 1 1 2 4 7 9 10 9 8 6 6 6 6 6 6 5 4 4 3 2 2 2 2 2 2 2 2 2 2 2
0 0 0 0 0 0 0 0 0 0 0 0 0 0 1 2 3 4 6 8 9 9 8 7 6 7 8 7 6 5 5 4 3 3 2 2 2 2 2 2 2 2 2 2
0 0 0 0 0 0 0 0 0 0 0 0 0 0 1 3 4 5 6 7 8 8 8 8 8 8 10 9 6 4 5 5 4 3 3 3 3 2 2 2 2 2 2 1
0 0 0 0 0 0 0 0 0 0 0 0 0 0 1 3 5 6 6 7 8 8 9 9 10 10 9 8 6 4 4 5 5 4 4 3 3 3 2 2 2 1 1 1
0 0 0 0 0 0 0 0 0 0 0 0 0 1 1 3 5 6 7 8 8 9 9 9 9 8 7 6 5 4 3 4 5 5 4 3 3 3 2 2 2 1 1 1
0 0 0 0 0 0 0 0 0 0 0 0 0 1 2 3 5 6 6 8 8 8 9 9 8 7 5 4 4 4 3 3 4 4 3 3 3 2 2 2 2 2 1 1
0 0 0 0 0 0 0 0 0 0 0 0 0 1 2 4 5 5 6 7 7 7 8 8 7 6 5 5 4 4 3 3 3 3 3 3 3 3 2 2 2 2 2 2
0 0 0 0 0 0 0 1 1 1 1 1 1 2 3 4 5 5 6 7 7 6 7 8 8 7 6 5 4 4 3 3 3 3 3 3 3 3 3 2 2 2 2 2
0 0 0 0 0 0 0 1 1 1 1 1 1 2 4 5 5 6 7 9 9 7 7 8 8 7 6 5 5 5 4 4 4 4 4 4 4 3 3 3 2 2 2 3
0 0 0 0 0 0 1 1 1 1 1 2 2 3 4 6 7 8 8 10 11 10 9 9 8 8 8 7 7 6 6 5 4 4 4 4 4 4 3 3 3 2 3 3
0 0 1 0 0 0 1 1 1 1 2 2 3 4 5 6 8 9 8 9 11 11 10 9 9 10 10 9 8 7 6 4 4 4 4 4 4 4 4 4 3 3 3 3
0 0 0 0 0 0 1 1 1 1 2 3 3 4 5 6 7 7 7 8 9 10 8 8 9 10 10 9 7 6 4 3 3 3 3 3 4 5 5 5 5 4 3 3
0 0 0 0 0 0 1 1 1 1 2 3 4 5 6 6 6 6 6 7 8 8 6 6 7 8 8 6 5 4 3 3 3 3 3 3 4 5 6 6 6 5 4 3
0 0 0 0 0 0 1 1 2 1 2 3 4 6 7 7 7 8 7 7 6 6 5 5 5 6 5 4 4 4 3 3 3 3 3 3 3 4 5 6 6 6 6 5
0 0 0 0 0 1 1 1 1 1 2 3 5 7 8 8 9 10 8 6 5 5 5 6 8 8 6 5 4 3 3 3 3 3 3 2 2 2 3 4 5 7 7 7
0 0 0 1 1 1 1 1 1 1 2 4 6 8 8 9 10 10 9 7 6 7 8 10 12 10 7 5 4 3 3 3 3 3 3 2 1 1 2 3 4 5 6 7
0 0 1 1 1 1 1 1 1 2 3 5 6 8 8 10 12 13 12 11 10 11 11 12 12 10 7 5 4 3 2 2 2 2 2 1 1 1 2 2 3 3 4 4
0 0 1 1 1 1 1 1 2 3 3 4 6 7 10 12 16 18 17 15 14 13 12 12 10 8 6 5 4 3 2 2 2 2 1 1 1 1 1 2 2 2 2 2
Wind_Speed
4 3 6 8 7 6 4 4 7 10 8 4 6 9 11 12 14 14 14 15 16 15 13 13 15 15 14 13 12 11 11 9 7 5 4 5 4 4 4 4 6 6 5 5
1 7 9 7 6 6 7 8 10 10 8 3 4 7 9 12 15 18 19 18 17 13 11 14 14 14 14 15 13 12 11 10 8 6 4 4 4 3 4 4 5 5 5 5
9 7 7 8 8 8 9 9 9 9 7 3 3 1 4 6 7 11 16 17 18 19 20 18 17 15 14 14 15 13 12 10 9 7 4 3 3 2 2 3 4 4 6 6
7 10 8 9 11 9 9 10 9 7 2 4 3 3 7 6 6 9 12 14 16 17 16 17 17 17 17 15 13 12 12 11 9 9 7 7 6 5 5 4 4 4 5 6
7 7 9 12 14 11 10 9 6 4 2 2 1 3 7 3 7 10 13 15 16 17 18 19 19 18 16 14 13 12 12 11 9 9 9 8 6 4 3 4 5 5 5 6
9 7 8 11 11 10 8 4 3 3 4 2 4 4 7 6 12 12 13 15 16 17 18 16 14 13 11 12 12 12 12 11 10 10 9 9 8 6 6 6 6 5 4 4
7 9 8 6 5 5 4 4 3 3 2 6 4 4 10 10 11 13 14 16 17 16 16 15 14 14 14 15 14 13 13 12 11 10 9 9 8 8 9 8 7 6 4 4
5 7 7 6 9 7 6 10 9 6 5 5 2 6 9 8 6 7 10 13 15 15 15 16 17 17 16 16 15 14 14 12 12 11 10 8 8 6 6 7 7 7 6 6
5 7 7 7 6 9 5 5 9 8 2 1 5 5 7 4 0 2 6 9 12 15 16 16 16 15 15 15 15 15 14 12 12 12 10 8 8 7 7 7 7 6 6 6
6 4 7 6 3 3 8 8 6 6 4 3 5 4 4 4 3 2 5 8 11 13 15 14 15 15 14 13 12 12 12 13 11 11 10 8 7 8 7 6 7 7 7 6
6 4 6 3 4 6 3 4 5 6 6 6 3 7 7 7 6 6 8 8 11 14 15 13 12 12 11 10 10 10 11 10 10 10 9 8 7 7 6 6 7 6 6 6
4 5 4 7 6 7 7 7 8 6 4 5 4 9 6 5 5 7 8 7 8 12 12 12 12 11 10 10 10 10 10 10 10 9 8 8 7 6 6 6 6 6 6 6
2 5 1 7 7 2 2 4 5 6 5 4 5 9 4 0 1 3 5 6 8 10 11 10 10 11 11 11 11 10 9 9 9 8 8 7 7 7 7 7 6 6 6 6
2 4 6 7 6 2 2 3 3 6 5 4 7 7 5 2 1 2 4 5 7 9 10 10 9 9 10 10 10 9 9 8 8 8 8 7 8 8 7 7 6 6 6 6
4 2 2 4 3 2 2 3 3 4 7 8 8 7 6 4 5 4 5 5 5 7 9 10 10 9 9 8 8 8 8 8 8 8 8 8 7 6 6 6 6 6 6 6
4 2 1 3 3 3 4 3 2 3 3 4 4 5 6 3 4 5 5 6 6 6 9 10 10 10 10 10 9 8 7 7 7 8 8 7 6 6 6 6 6 5 5 5
2 3 3 2 4 4 4 3 1 1 2 4 6 7 3 2 6 7 7 8 8 8 9 10 10 9 9 9 9 8 8 7 7 7 6 6 6 6 6 6 5 5 5 4
2 2 2 0 3 3 7 3 1 1 2 2 4 5 6 7 5 4 6 10 9 8 8 8 7 7 7 7 7 7 7 7 7 6 6 5 6 5 5 5 5 5 4 4
6 5 2 2 1 4 5 3 1 1 2 2 3 3 5 6 6 4 1 5 8 8 7 7 7 7 6 7 7 7 6 6 6 5 5 5 6 5 5 5 4 4 4 3
4 5 4 3 3 5 5 5 5 0 2 4 1 4 4 5 5 2 1 3 5 6 6 7 7 7 6 6 7 7 6 5 5 5 5 4 5 5 5 4 3 3 3 3
2 2 4 4 3 5 5 6 4 1 5 4 0 3 4 3 4 4 4 6 6 7 6 7 8 7 5 5 7 7 6 5 4 4 4 4 4 4 4 3 3 3 3 3
4 4 4 4 4 7 5 3 1 3 3 1 2 4 6 7 7 8 8 8 8 8 8 7 8 6 4 5 7 7 4 3 4 5 5 4 3 3 3 3 2 2 3 3
2 5 5 6 6 4 1 1 1 1 0 1 3 4 8 10 9 9 8 8 8 8 7 7 8 7 6 5 6 7 4 4 5 6 5 5 4 4 4 3 3 3 3 2
3 1 1 1 1 1 2 3 4 4 2 2 3 5 9 10 10 10 8 7 7 7 7 7 8 8 7 6 6 5 4 5 6 6 5 5 5 5 5 4 3 3 2 2
3 1 1 0 0 3 3 4 4 5 5 5 5 5 8 10 11 10 9 8 6 6 6 7 8 8 6 5 5 5 4 5 7 6 6 5 5 5 5 5 5 4 3 1
1 2 2 3 3 1 1 3 4 4 3 3 5 7 7 9 11 11 9 7 6 6 6 7 8 7 6 6 5 4 3 5 6 6 5 4 4 4 4 5 6 10 7 8
Wind_Direction
209 151 212 219 201 207 246 277 276 273 278 245 212 196 193 184 177 176 176 177 183 189 181 173 169 167 163 166 164 164 164 166 157 152 156 154 164 167 167 173 174 171 170 167
237 235 223 215 226 235 251 263 272 284 281 247 201 202 191 182 182 179 178 181 181 176 174 174 169 169 170 171 171 168 170 171 169 167 163 159 157 167 172 175 174 172 170 171
204 233 208 218 235 240 248 232 244 258 295 326 140 240 214 202 182 180 179 181 180 176 177 176 174 176 174 175 176 176 175 174 172 164 150 139 125 124 152 175 182 183 177 181
235 242 233 222 233 225 249 239 234 247 277 285 147 206 254 213 187 188 184 181 181 181 178 176 176 177 180 180 176 172 173 173 172 169 168 168 172 180 190 182 184 187 186 186
240 218 217 227 231 221 230 242 234 234 210 285 332 162 263 211 199 203 193 186 184 183 181 180 181 181 178 173 172 171 170 174 175 177 178 179 184 187 176 171 179 186 192 193
250 255 219 220 232 223 225 251 340 40 75 252 239 170 256 218 203 200 196 189 187 185 183 181 178 169 166 169 171 171 173 178 179 181 183 186 184 180 175 183 188 192 192 195
275 269 252 230 229 253 201 120 37 351 6 244 238 191 242 237 206 196 191 190 188 184 180 173 170 171 172 174 176 175 177 180 182 184 188 189 189 187 188 190 193 192 190 196
224 266 247 222 199 205 202 148 160 186 213 267 282 223 252 251 217 197 183 180 181 182 179 176 178 177 178 178 178 177 181 182 184 188 192 191 191 191 195 196 193 197 199 199
203 249 263 234 205 176 181 177 170 141 176 239 274 276 303 327 48 168 164 169 178 181 179 178 177 179 180 180 181 181 181 182 186 190 192 194 194 194 196 196 195 199 201 200
187 254 277 256 229 205 174 165 112 123 160 239 279 266 250 279 269 192 166 185 182 178 178 177 177 180 181 181 178 177 180 185 185 189 194 198 198 195 194 191 197 199 199 198
179 203 292 325 198 203 173 144 129 138 154 161 243 268 227 214 211 193 188 188 180 173 174 174 174 173 169 164 168 175 181 181 184 188 192 195 193 192 190 193 198 196 194 193
179 151 246 263 253 203 177 176 147 156 211 172 178 263 258 225 206 183 181 178 168 166 166 167 165 161 160 163 168 178 182 182 184 185 186 193 190 189 195 199 198 191 192 194
148 128 119 329 329 347 164 174 157 144 141 161 178 261 305 326 116 143 150 154 151 156 154 156 161 163 167 170 172 178 179 182 180 178 183 190 190 193 200 202 196 191 193 197
107 121 159 193 223 247 241 235 175 136 157 200 213 242 294 317 121 111 119 136 146 149 152 153 158 165 169 170 171 174 177 177 176 178 185 195 198 197 199 198 194 193 193 196
72 118 196 218 242 269 256 254 228 190 188 189 221 218 231 218 183 159 134 121 129 141 151 155 159 165 167 168 172 174 171 172 175 177 186 197 199 192 188 190 193 190 193 199
39 72 28 330 327 328 305 295 256 229 199 194 185 232 233 204 138 125 124 130 147 154 155 155 158 159 165 170 172 171 170 170 168 175 186 188 184 181 184 188 188 187 193 198
24 57 58 306 324 9 303 271 223 254 230 180 197 225 205 173 155 154 152 157 164 166 160 156 157 162 166 169 167 168 169 164 166 173 177 177 177 183 190 190 186 189 194 192
149 79 107 63 24 240 248 259 160 112 271 196 190 196 168 169 158 141 157 157 158 152 152 148 149 150 154 155 154 152 150 155 161 167 174 176 174 179 180 180 188 194 194 194
167 145 132 129 190 276 288 310 7 28 302 291 167 156 154 129 90 56 61 145 148 140 136 136 138 142 141 148 148 142 145 150 154 163 168 170 169 172 174 181 192 191 188 198
131 125 132 150 172 230 258 299 310 92 279 321 107 144 148 121 118 198 183 108 114 115 114 120 121 115 125 138 136 133 137 140 152 164 166 166 164 165 173 184 183 175 172 183
91 110 160 179 204 258 272 307 0 135 244 299 105 149 132 130 157 150 118 103 103 103 97 101 103 105 120 130 126 127 129 143 157 146 139 141 147 154 160 157 153 147 151 147
164 164 185 166 190 245 297 16 80 230 266 330 76 96 94 93 93 94 99 104 101 93 93 101 101 98 99 110 115 114 120 133 124 118 115 116 115 130 132 129 132 129 134 135
175 184 183 183 205 237 304 149 210 160 2 46 79 92 106 104 99 92 91 91 91 95 92 92 96 93 80 84 105 112 110 110 109 104 101 98 90 80 86 103 113 111 119 127
325 8 104 115 248 340 8 11 23 37 44 26 78 106 108 110 108 98 93 85 83 83 89 92 94 92 84 77 83 92 98 105 106 104 100 96 92 84 75 72 77 89 102 127
280 335 40 58 311 32 11 14 25 36 47 51 50 87 110 117 111 106 102 97 91 84 83 89 94 94 89 85 84 85 90 101 101 102 103 100 97 97 87 74 60 65 50 63
266 193 166 216 225 175 277 335 6 53 56 73 83 86 86 101 110 108 105 103 95 89 86 87 86 89 89 87 82 79 87 107 111 105 103 104 106 103 102 98 79 57 63 63